Location: Voyageurs National Park
(48.5020°N, 92.9292°W)
Time: 13:45:44
(UTC-05:00)

Amateur Radio Satellites - All Passes

Search period start: 25 July 2017 13:15
Search period end: 26 July 2017 13:15
Location: Voyageurs National Park, 48.5020°N, 92.9292°W

Satellite Date Start Highest point End Downlink Frequencies (MHz)
Time Altitude Azimuth
SPROUT 25 Jul 13:17:53 13:21:57 41° 98° (E) 13:25:58 437.525
ESTCUBE 1 25 Jul 13:21:29 13:25:54 55° 289° (WNW) 13:30:19 437.505/2401.250
Oscar 19 25 Jul 13:23:41 13:28:43 61° 71° (ENE) 13:33:48 437.125/150
BEESAT 3 25 Jul 13:26:20 13:30:15 57° 123° (ESE) 13:34:14 437.485
NO-84 25 Jul 13:31:04 13:34:10 43° 340° (NNW) 13:37:34 435.350 FM
AO-7 25 Jul 13:38:50 13:45:22 26° 46° (NE) 13:51:54 .
ITAMSAT 1 25 Jul 13:41:43 13:42:42 10° 49° (NE) 13:43:41 435.822/435.867
Gurwin Techsat 1B 25 Jul 13:52:18 13:57:36 72° 72° (ENE) 14:02:55 435.225
DUCHIFAT 1 25 Jul 13:56:57 13:57:24 10° 274° (W) 13:57:52 145.980
PCSat 25 Jul 14:01:25 14:06:51 65° 52° (NE) 14:12:14 145.827
SO-50 25 Jul 14:04:36 14:08:40 31° 38° (NE) 14:12:43 436.795
VELOX 1 25 Jul 14:05:28 14:09:58 81° 286° (WNW) 14:14:25 145.980
BEESAT 2 25 Jul 14:06:59 14:10:52 52° 123° (ESE) 14:14:51 435.950
DX 1 25 Jul 14:09:52 14:13:59 38° 98° (E) 14:18:04 434.975-435.025
50 SAT 25 Jul 14:14:39 14:18:05 62° 102° (ESE) 14:21:29 437.505
BUGSAT 1 25 Jul 14:21:34 14:24:18 17° 269° (W) 14:27:03 437.445
AO-85 25 Jul 14:30:21 14:34:04 40° 316° (NW) 14:37:48 145.980
UKube-1 25 Jul 14:51:34 14:55:54 68° 102° (ESE) 15:00:13 .
SPROUT 25 Jul 14:54:15 14:57:39 24° 296° (WNW) 15:01:01 437.525
BEESAT 25 Jul 15:00:05 15:01:10 11° 86° (E) 15:02:16 436.000
Oscar 19 25 Jul 15:04:43 15:08:28 20° 269° (W) 15:12:15 437.125/150
BEESAT 3 25 Jul 15:04:48 15:08:08 24° 323° (NW) 15:11:29 437.485
NO-84 25 Jul 15:09:13 15:12:14 28° 1° (N) 15:15:30 435.350 FM
ITUPSAT 1 25 Jul 15:12:20 15:14:53 14° 88° (E) 15:17:25 437.325
ITAMSAT 1 25 Jul 15:15:59 15:21:04 55° 69° (ENE) 15:26:11 435.822/435.867
RS-15 25 Jul 15:20:15 15:30:38 35° 105° (ESE) 15:41:05 29.354- 29.394
AO-7 25 Jul 15:28:44 15:37:06 86° 68° (ENE) 15:45:33 .
Gurwin Techsat 1B 25 Jul 15:34:28 15:38:06 18° 271° (W) 15:41:45 435.225
VELOX 1 25 Jul 15:43:58 15:45:40 12° 305° (NW) 15:47:23 145.980
SO-50 25 Jul 15:44:55 15:49:19 50° 238° (WSW) 15:53:44 436.795
BEESAT 2 25 Jul 15:45:29 15:48:53 25° 323° (NW) 15:52:19 435.950
PCSat 25 Jul 15:45:33 15:49:48 24° 251° (WSW) 15:54:02 145.827
DX 1 25 Jul 15:46:20 15:50:02 27° 296° (WNW) 15:53:41 434.975-435.025
O/OREOS (USA 219) 25 Jul 15:47:02 15:51:23 52° 110° (ESE) 15:55:45 437.305
50 SAT 25 Jul 15:49:03 15:50:20 12° 300° (WNW) 15:51:36 437.505
MOZHAYETS 4 25 Jul 15:54:49 15:58:43 27° 94° (E) 16:02:37
AO-85 25 Jul 16:14:13 16:15:33 11° 339° (NNW) 16:16:53 145.980
UKube-1 25 Jul 16:28:45 16:31:26 16° 301° (WNW) 16:34:08 .
CUBESAT XI-V 25 Jul 16:31:28 16:34:06 15° 88° (E) 16:36:44 437.345
BEESAT 25 Jul 16:34:55 16:39:43 81° 104° (ESE) 16:44:28 436.000
NO-84 25 Jul 16:46:47 16:50:18 47° 22° (NNE) 16:54:07 435.350 FM
ITUPSAT 1 25 Jul 16:48:31 16:53:18 79° 286° (WNW) 16:58:03 437.325
ITAMSAT 1 25 Jul 16:56:42 17:00:51 24° 267° (W) 17:05:02 435.822/435.867
LilacSat-2 25 Jul 16:59:33 17:00:58 12° 60° (ENE) 17:02:22 437.200
CUTE-I 25 Jul 17:08:20 17:12:16 21° 58° (ENE) 17:16:13 437.470
XW-2F 25 Jul 17:12:20 17:14:22 14° 61° (ENE) 17:16:24 145.980 - 146.000
YUBILEINY 25 Jul 17:12:51 17:15:48 12° 68° (ENE) 17:18:45 435.215
DOVE 4 25 Jul 17:18:46 17:23:34 51° 70° (ENE) 17:28:37 437.250
AO-7 25 Jul 17:24:22 17:30:52 24° 269° (W) 17:37:25 .
O/OREOS (USA 219) 25 Jul 17:27:29 17:31:05 23° 310° (NW) 17:34:42 437.305
RS-15 25 Jul 17:29:37 17:41:57 84° 309° (NW) 17:54:23 29.354- 29.394
MOZHAYETS 4 25 Jul 17:31:45 17:35:58 37° 292° (WNW) 17:40:09
XW-2D 25 Jul 17:40:02 17:43:16 28° 68° (ENE) 17:46:32 145.860 - 145.880
XW-2B 25 Jul 17:49:53 17:53:19 35° 69° (ENE) 17:56:45 145.730 - 145.750
HO-68 25 Jul 18:00:10 18:06:06 29° 54° (NE) 18:12:01 435.675
XW-2C 25 Jul 18:06:59 18:10:39 55° 72° (ENE) 18:14:20 145.795 - 145.815
CUBESAT XI-V 25 Jul 18:07:20 18:12:00 74° 286° (WNW) 18:16:41 437.345
KKS-1 25 Jul 18:08:32 18:13:01 65° 102° (ESE) 18:17:27 437.445
NUDT-PHONESAT 25 Jul 18:12:37 18:16:09 47° 72° (ENE) 18:19:42 437.300
BEESAT 25 Jul 18:14:01 18:16:53 16° 303° (WNW) 18:19:44 436.000
NO-84 25 Jul 18:24:11 18:27:49 44° 220° (SW) 18:31:43 435.350 FM
CUBEBUG 2 25 Jul 18:27:16 18:29:31 14° 58° (ENE) 18:31:45 437.445
KAITUO 1B 25 Jul 18:27:41 18:31:22 74° 75° (ENE) 18:35:04 145.475/437.950
ITUPSAT 1 25 Jul 18:28:15 18:30:21 13° 306° (NW) 18:32:26 437.325
LilacSat-2 25 Jul 18:30:56 18:34:42 74° 258° (WSW) 18:38:29 437.200
STARS 25 Jul 18:36:46 18:41:07 55° 101° (E) 18:45:26 437.465
CUTE 1.7 + AOD 2 25 Jul 18:40:09 18:43:38 26° 65° (ENE) 18:47:06 437.475
XW-2F 25 Jul 18:44:24 18:48:04 57° 259° (W) 18:51:46 145.980 - 146.000
CUTE-I 25 Jul 18:46:26 18:51:48 72° 257° (WSW) 18:57:12 437.470
SEEDS 25 Jul 18:51:31 18:54:44 22° 64° (ENE) 18:57:59 437.485
DOVE 4 25 Jul 18:57:31 19:01:33 24° 270° (W) 19:05:45 437.250
YUBILEINY 25 Jul 19:01:59 19:10:31 57° 90° (E) 19:19:05 435.215
XW-2D 25 Jul 19:14:19 19:17:27 25° 265° (W) 19:20:36 145.860 - 145.880
XW-2A 25 Jul 19:21:21 19:24:28 36° 71° (ENE) 19:27:36 145.665 - 145.685
UWE-3 25 Jul 19:22:18 19:25:59 25° 65° (ENE) 19:29:37 435.000/436.395/437.385
XW-2B 25 Jul 19:24:45 19:27:36 20° 267° (W) 19:30:28 145.730 - 145.750
AAUSAT CUBESAT 2 25 Jul 19:32:53 19:36:22 27° 66° (ENE) 19:39:54 437.432
STRAND 1 25 Jul 19:33:31 19:36:55 18° 89° (E) 19:40:17 437.568
ZACube-1 25 Jul 19:35:14 19:38:24 20° 63° (ENE) 19:41:31 437.345
AO-85 25 Jul 19:37:17 19:39:58 17° 30° (NNE) 19:42:45 145.980
XW-2C 25 Jul 19:43:17 19:45:11 13° 270° (W) 19:47:04 145.795 - 145.815
RS-15 25 Jul 19:44:49 19:56:24 43° 339° (NNW) 20:07:53 29.354- 29.394
HO-68 25 Jul 19:46:05 19:53:15 73° 255° (WSW) 20:00:27 435.675
KKS-1 25 Jul 19:46:08 19:49:06 18° 301° (WNW) 19:52:04 437.445
CUBESAT XI-V 25 Jul 19:46:58 19:48:34 12° 305° (NW) 19:50:10 437.345
NUDT-PHONESAT 25 Jul 19:48:10 19:50:18 15° 269° (W) 19:52:28 437.300
Oscar 11 25 Jul 19:59:55 20:03:18 23° 64° (ENE) 20:06:42 .
CUBEBUG 2 25 Jul 20:00:47 20:05:29 88° 78° (ENE) 20:10:05 437.445
BEESAT 3 25 Jul 20:02:35 20:05:43 21° 34° (NE) 20:08:50 437.485
STARS 25 Jul 20:13:55 20:17:06 20° 299° (WNW) 20:20:15 437.465
AO-73 25 Jul 20:13:55 20:18:00 39° 69° (ENE) 20:22:01 145.935
CUTE 1.7 + AOD 2 25 Jul 20:15:28 20:19:20 35° 264° (W) 20:23:13 437.475
SEEDS 25 Jul 20:26:16 20:30:12 41° 262° (W) 20:34:10 437.485
DELFI C3 25 Jul 20:31:10 20:32:57 13° 59° (ENE) 20:34:45 145.870
CUTE-I 25 Jul 20:31:30 20:32:48 11° 276° (W) 20:34:07 437.470
BEESAT 2 25 Jul 20:43:54 20:47:01 21° 34° (NNE) 20:50:08 435.950
EO-88 25 Jul 20:48:46 20:49:53 11° 60° (ENE) 20:51:00 145.990 - 145.960
ISS 25 Jul 20:49:15 20:51:12 15° 137° (SE) 20:53:08 437.550
XW-2A 25 Jul 20:55:12 20:57:22 16° 268° (W) 20:59:31 145.665 - 145.685
UWE-3 25 Jul 20:57:56 21:02:15 42° 262° (W) 21:06:30 435.000/436.395/437.385
YUBILEINY 25 Jul 20:59:34 21:07:42 39° 293° (WNW) 21:15:52 435.215
Tancredo 1 25 Jul 21:00:59 21:03:43 37° 148° (SSE) 21:06:29 437.200
FO-29 25 Jul 21:02:14 21:05:02 13° 78° (ENE) 21:07:43 435.910
AAUSAT CUBESAT 2 25 Jul 21:08:05 21:11:46 31° 265° (W) 21:15:28 437.432
ZACube-1 25 Jul 21:10:01 21:14:21 53° 260° (W) 21:18:37 437.345
STRAND 1 25 Jul 21:11:31 21:16:38 71° 288° (WNW) 21:21:43 437.568
AO-85 25 Jul 21:16:51 21:21:00 75° 50° (NE) 21:25:26 145.980
nSIGHT-1 25 Jul 21:29:36 21:32:29 30° 145° (SE) 21:35:22 .
Oscar 11 25 Jul 21:35:09 21:39:13 42° 262° (W) 21:43:20 .
HO-68 25 Jul 21:38:24 21:42:14 15° 275° (W) 21:46:06 435.675
BEESAT 3 25 Jul 21:39:42 21:43:44 70° 234° (SW) 21:47:40 437.485
CUBEBUG 2 25 Jul 21:40:52 21:42:42 12° 273° (W) 21:44:30 437.445
AO-73 25 Jul 21:50:46 21:54:22 24° 267° (W) 21:57:54 145.935
RS-15 25 Jul 22:01:27 22:12:48 39° 13° (NNE) 22:23:46 29.354- 29.394
DELFI C3 25 Jul 22:03:13 22:07:09 75° 256° (WSW) 22:11:09 145.870
UNISAT 6 25 Jul 22:12:08 22:15:01 17° 90° (E) 22:17:50 437.425
EO-88 25 Jul 22:19:23 22:23:00 74° 257° (WSW) 22:26:40 145.990 - 145.960
BEESAT 2 25 Jul 22:21:10 22:25:15 75° 233° (SW) 22:29:16 435.950
LO-87 25 Jul 22:22:18 22:24:51 18° 64° (ENE) 22:27:25 145.935 - 145.965
ISS 25 Jul 22:23:58 22:27:13 73° 155° (SSE) 22:30:28 437.550
Tancredo 1 25 Jul 22:36:10 22:39:04 55° 347° (NNW) 22:41:58 437.200
FO-29 25 Jul 22:44:29 22:51:45 65° 101° (E) 22:58:06 435.910
ESTCUBE 1 25 Jul 22:48:26 22:52:12 27° 64° (ENE) 22:55:59 437.505/2401.250
M-CUBED/EXP-1 PRIME 25 Jul 22:48:34 22:50:54 14° 94° (E) 22:53:13 437.505
STRAND 1 25 Jul 22:52:42 22:54:55 13° 308° (NW) 22:57:08 437.568
TIGRISAT 25 Jul 22:55:18 22:59:26 41° 98° (E) 23:03:28 435.000
AO-85 25 Jul 22:58:25 23:00:57 16° 247° (WSW) 23:03:35 145.980
nSIGHT-1 25 Jul 23:05:31 23:08:44 67° 344° (NNW) 23:11:57 .
PRISM 25 Jul 23:29:52 23:34:05 83° 107° (ESE) 23:38:14 437.425
VELOX 1 25 Jul 23:31:14 23:34:22 19° 60° (ENE) 23:37:31 145.980
UNISAT 6 25 Jul 23:47:50 23:52:06 54° 289° (WNW) 23:56:16 437.425
LO-87 25 Jul 23:54:35 23:58:01 39° 262° (W) 00:01:29 145.935 - 145.965
DUCHIFAT 1 25 Jul 23:59:23 00:00:29 11° 87° (E) 00:01:33 145.980
ISS 26 Jul 00:00:39 00:03:50 47° 355° (N) 00:07:01 437.550
POLYITAN 1 26 Jul 00:02:03 00:04:27 15° 89° (E) 00:06:50 437.675
Tancredo 1 26 Jul 00:11:53 00:14:44 45° 7° (N) 00:17:36 437.200
O/OREOS (USA 219) 26 Jul 00:14:11 00:18:03 27° 52° (NE) 00:21:54 437.305
SPROUT 26 Jul 00:14:22 00:18:32 50° 71° (ENE) 00:22:42 437.525
QB50P2 26 Jul 00:14:30 00:17:46 21° 93° (E) 00:21:00 145.880/145.840
RS-15 26 Jul 00:15:36 00:27:53 70° 44° (NE) 00:39:31 29.354- 29.394
UKube-1 26 Jul 00:16:13 00:18:11 13° 56° (ENE) 00:20:08 .
M-CUBED/EXP-1 PRIME 26 Jul 00:21:12 00:25:48 86° 293° (WNW) 00:30:29 437.505
AIST 2D 26 Jul 00:24:00 00:27:27 53° 100° (E) 00:30:52 435.315
ESTCUBE 1 26 Jul 00:24:41 00:28:51 38° 263° (W) 00:33:04 437.505/2401.250
NANOSAT C BR1 26 Jul 00:25:36 00:28:58 23° 93° (E) 00:32:18 145.865
EO-79 26 Jul 00:26:02 00:29:34 25° 94° (E) 00:33:04 145.935-145.965
FO-29 26 Jul 00:30:02 00:36:13 31° 303° (WNW) 00:41:51 435.910
TIGRISAT 26 Jul 00:32:27 00:35:55 23° 297° (WNW) 00:39:19 435.000
nSIGHT-1 26 Jul 00:42:16 00:45:25 46° 3° (N) 00:48:33 .
50 SAT 26 Jul 00:49:21 00:52:33 39° 70° (ENE) 00:55:46 437.505
VELOX 1 26 Jul 01:06:04 01:10:25 58° 259° (W) 01:14:50 145.980
PRISM 26 Jul 01:06:49 01:08:44 13° 303° (WNW) 01:10:39 437.425
DX 1 26 Jul 01:08:36 01:12:51 53° 70° (ENE) 01:17:08 434.975-435.025
Oscar 19 26 Jul 01:32:29 01:35:39 16° 89° (E) 01:38:47 437.125/150
DUCHIFAT 1 26 Jul 01:32:31 01:36:44 83° 287° (WNW) 01:40:54 145.980
POLYITAN 1 26 Jul 01:36:29 01:40:39 62° 288° (WNW) 01:44:47 437.675
ISS 26 Jul 01:37:21 01:40:36 62° 15° (NNE) 01:43:50 437.550
Tancredo 1 26 Jul 01:47:19 01:50:15 66° 207° (SSW) 01:53:11 437.200
UKube-1 26 Jul 01:49:13 01:53:33 89° 255° (WSW) 01:57:55 .
QB50P2 26 Jul 01:49:45 01:53:44 42° 291° (WNW) 01:57:42 145.880/145.840
SPROUT 26 Jul 01:51:39 01:54:43 19° 269° (W) 01:57:47 437.525
O/OREOS (USA 219) 26 Jul 01:53:22 01:57:36 41° 252° (WSW) 02:01:49 437.305
M-CUBED/EXP-1 PRIME 26 Jul 01:57:00 01:59:35 15° 308° (NW) 02:02:12 437.505
BUGSAT 1 26 Jul 01:57:37 02:01:40 55° 100° (E) 02:05:39 437.445
AIST 2D 26 Jul 01:58:31 02:00:15 13° 298° (WNW) 02:01:58 435.315
NANOSAT C BR1 26 Jul 02:00:54 02:04:49 39° 291° (WNW) 02:08:42 145.865
EO-79 26 Jul 02:01:33 02:05:24 35° 292° (WNW) 02:09:14 145.935-145.965
Gurwin Techsat 1B 26 Jul 02:05:23 02:09:22 21° 91° (E) 02:13:19 435.225
BEESAT 26 Jul 02:08:39 02:12:13 21° 60° (ENE) 02:15:47 436.000
nSIGHT-1 26 Jul 02:18:45 02:21:59 83° 204° (SSW) 02:25:13 .
ITUPSAT 1 26 Jul 02:22:01 02:26:00 27° 63° (ENE) 02:29:59 437.325
50 SAT 26 Jul 02:23:25 02:25:28 15° 268° (W) 02:27:32 437.505
RS-15 26 Jul 02:28:45 02:39:51 45° 250° (WSW) 02:50:26 29.354- 29.394
DX 1 26 Jul 02:46:18 02:49:21 18° 269° (W) 02:52:25 434.975-435.025
MOZHAYETS 4 26 Jul 02:59:59 03:04:16 41° 68° (ENE) 03:08:33
Oscar 19 26 Jul 03:10:23 03:15:34 79° 287° (WNW) 03:20:45 437.125/150
DUCHIFAT 1 26 Jul 03:10:30 03:11:41 11° 304° (NW) 03:12:53 145.980
ISS 26 Jul 03:13:57 03:16:59 36° 213° (SSW) 03:20:00 437.550
Tancredo 1 26 Jul 03:23:56 03:25:10 12° 224° (SW) 03:26:24 437.200
ITAMSAT 1 26 Jul 03:26:31 03:29:10 14° 87° (E) 03:31:49 435.822/435.867
AO-7 26 Jul 03:27:08 03:33:17 22° 89° (E) 03:39:23 .
UKube-1 26 Jul 03:29:31 03:30:14 10° 273° (W) 03:30:57 .
BUGSAT 1 26 Jul 03:33:56 03:36:38 17° 299° (WNW) 03:39:19 437.445
KKS-1 26 Jul 03:36:07 03:38:24 14° 57° (ENE) 03:40:42 437.445
CUBESAT XI-V 26 Jul 03:38:03 03:41:37 23° 62° (ENE) 03:45:12 437.345
Gurwin Techsat 1B 26 Jul 03:44:29 03:49:45 63° 290° (WNW) 03:55:00 435.225
BEESAT 26 Jul 03:44:55 03:49:37 58° 259° (WSW) 03:54:21 436.000
nSIGHT-1 26 Jul 03:55:47 03:58:00 17° 221° (SW) 04:00:14 .
ITUPSAT 1 26 Jul 03:59:03 04:03:38 44° 261° (W) 04:08:13 437.325
STARS 26 Jul 04:03:48 04:05:22 12° 55° (NE) 04:06:55 437.465
MOZHAYETS 4 26 Jul 04:37:45 04:41:34 25° 267° (W) 04:45:22
PCSat 26 Jul 04:47:37 04:52:02 26° 109° (ESE) 04:56:27 145.827
Oscar 19 26 Jul 04:51:25 04:54:05 14° 306° (NW) 04:56:45 437.125/150
ITAMSAT 1 26 Jul 05:04:08 05:09:23 89° 284° (WNW) 05:14:34 435.822/435.867
YUBILEINY 26 Jul 05:07:23 05:15:16 35° 65° (ENE) 05:23:03 435.215
KKS-1 26 Jul 05:09:50 05:14:19 87° 258° (WSW) 05:18:51 437.445
CUBESAT XI-V 26 Jul 05:14:15 05:18:41 49° 261° (W) 05:23:11 437.345
DOVE 4 26 Jul 05:15:49 05:17:56 12° 84° (E) 05:19:59 437.250
AO-7 26 Jul 05:18:45 05:27:11 88° 109° (ESE) 05:35:33 .
Gurwin Techsat 1B 26 Jul 05:26:42 05:28:42 12° 309° (NW) 05:30:43 435.225
STARS 26 Jul 05:36:31 05:40:57 79° 74° (ENE) 05:45:25 437.465
SO-50 26 Jul 06:03:24 06:06:45 21° 114° (ESE) 06:10:06 436.795
XW-2F 26 Jul 06:14:34 06:15:44 11° 88° (E) 06:16:54 145.980 - 146.000
PCSat 26 Jul 06:29:41 06:35:04 60° 309° (NW) 06:40:28 145.827
XW-2D 26 Jul 06:42:31 06:45:40 24° 94° (E) 06:48:48 145.860 - 145.880
ITAMSAT 1 26 Jul 06:44:59 06:48:08 16° 305° (NW) 06:51:16 435.822/435.867
KKS-1 26 Jul 06:50:33 06:51:34 11° 273° (W) 06:52:35 437.445
DOVE 4 26 Jul 06:51:08 06:56:28 80° 103° (ESE) 07:01:36 437.250
XW-2B 26 Jul 06:52:28 06:55:50 30° 96° (E) 06:59:11 145.730 - 145.750
STRAND 1 26 Jul 06:52:32 06:57:14 37° 65° (ENE) 07:01:57 437.568
CUTE-I 26 Jul 06:59:47 07:04:40 34° 96° (E) 07:09:30 437.470
YUBILEINY 26 Jul 07:04:02 07:12:40 64° 268° (W) 07:21:12 435.215
XW-2C 26 Jul 07:09:41 07:13:20 48° 99° (E) 07:17:00 145.795 - 145.815
HO-68 26 Jul 07:10:51 07:15:35 18° 87° (E) 07:20:16 435.675
AO-7 26 Jul 07:12:19 07:19:03 28° 312° (NW) 07:25:46 .
NUDT-PHONESAT 26 Jul 07:12:49 07:16:17 38° 98° (E) 07:19:44 437.300
STARS 26 Jul 07:15:49 07:17:51 13° 272° (W) 07:19:52 437.465
FO-29 26 Jul 07:18:50 07:22:37 14° 43° (NE) 07:26:21 435.910
KAITUO 1B 26 Jul 07:28:49 07:32:32 61° 102° (ESE) 07:36:13 145.475/437.950
LilacSat-2 26 Jul 07:34:23 07:38:12 83° 281° (WNW) 07:41:59 437.200
SO-50 26 Jul 07:42:19 07:46:49 62° 313° (NW) 07:51:18 436.795
XW-2F 26 Jul 07:46:34 07:50:17 67° 287° (WNW) 07:54:01 145.980 - 146.000
CUBEBUG 2 26 Jul 07:49:29 07:51:38 14° 88° (E) 07:53:44 437.445
CUTE 1.7 + AOD 2 26 Jul 07:56:10 07:59:54 29° 95° (E) 08:03:38 437.475
SEEDS 26 Jul 08:06:11 08:09:40 24° 93° (E) 08:13:09 437.485
XW-2A 26 Jul 08:12:06 08:14:48 22° 95° (E) 08:17:29 145.665 - 145.685
PCSat 26 Jul 08:15:54 08:19:35 18° 332° (NNW) 08:23:18 145.827
XW-2D 26 Jul 08:16:34 08:19:51 29° 292° (WNW) 08:23:09 145.860 - 145.880
XW-2B 26 Jul 08:26:51 08:29:56 24° 293° (WNW) 08:33:00 145.730 - 145.750
DOVE 4 26 Jul 08:29:55 08:33:29 19° 302° (WNW) 08:36:59 437.250
STRAND 1 26 Jul 08:31:46 08:36:26 34° 264° (W) 08:41:08 437.568
CUTE-I 26 Jul 08:39:48 08:44:45 39° 295° (WNW) 08:49:41 437.470
UWE-3 26 Jul 08:43:46 08:47:25 28° 95° (E) 08:51:01 435.000/436.395/437.385
XW-2C 26 Jul 08:44:47 08:47:12 17° 297° (WNW) 08:49:37 145.795 - 145.815
AAUSAT CUBESAT 2 26 Jul 08:45:52 08:49:34 30° 95° (E) 08:53:15 437.432
NUDT-PHONESAT 26 Jul 08:47:18 08:49:56 19° 296° (WNW) 08:52:34 437.300
PRISM 26 Jul 08:49:58 08:51:44 13° 57° (ENE) 08:53:31 437.425
ZACube-1 26 Jul 08:54:55 08:58:08 21° 92° (E) 09:01:19 437.345
HO-68 26 Jul 08:57:07 09:04:21 86° 109° (ESE) 09:11:30 435.675
FO-29 26 Jul 08:58:31 09:05:53 49° 64° (ENE) 09:13:18 435.910
YUBILEINY 26 Jul 09:03:36 09:07:34 14° 290° (WNW) 09:11:34 435.215
KAITUO 1B 26 Jul 09:04:13 09:06:04 13° 299° (WNW) 09:07:55 145.475/437.950
UNISAT 6 26 Jul 09:13:57 09:17:46 26° 64° (ENE) 09:21:32 437.425
Oscar 11 26 Jul 09:18:28 09:22:09 26° 94° (E) 09:25:48 .
CUBEBUG 2 26 Jul 09:24:30 09:28:46 67° 287° (WNW) 09:32:54 437.445
SO-50 26 Jul 09:25:08 09:28:08 17° 334° (NNW) 09:31:10 436.795
CUTE 1.7 + AOD 2 26 Jul 09:31:58 09:35:44 31° 293° (WNW) 09:39:28 437.475
AO-73 26 Jul 09:33:48 09:37:50 47° 99° (E) 09:41:49 145.935
M-CUBED/EXP-1 PRIME 26 Jul 09:37:06 09:40:16 25° 57° (ENE) 09:43:39 437.505
DELFI C3 26 Jul 09:38:29 09:39:39 11° 87° (E) 09:40:50 145.870
SEEDS 26 Jul 09:41:34 09:45:27 37° 291° (WNW) 09:49:21 437.485
XW-2A 26 Jul 09:44:43 09:47:31 25° 292° (WNW) 09:50:17 145.665 - 145.685
TIGRISAT 26 Jul 09:56:56 10:01:28 59° 72° (ENE) 10:05:57 435.000
PCSat 26 Jul 10:04:12 10:05:21 11° 359° (N) 10:06:29 145.827
UWE-3 26 Jul 10:20:11 10:23:54 31° 293° (WNW) 10:27:32 435.000/436.395/437.385
AAUSAT CUBESAT 2 26 Jul 10:21:20 10:24:59 30° 293° (WNW) 10:28:38 437.432
PRISM 26 Jul 10:22:17 10:26:23 84° 254° (WSW) 10:30:33 437.425
ZACube-1 26 Jul 10:30:41 10:34:36 40° 291° (WNW) 10:38:28 437.345
FO-29 26 Jul 10:43:31 10:50:53 46° 264° (W) 10:58:24 435.910
HO-68 26 Jul 10:45:46 10:51:17 25° 308° (NW) 10:56:49 435.675
UNISAT 6 26 Jul 10:49:55 10:54:18 41° 262° (W) 10:58:38 437.425
DUCHIFAT 1 26 Jul 10:54:04 10:56:29 15° 59° (ENE) 10:58:53 145.980
Oscar 11 26 Jul 10:54:24 10:58:20 35° 292° (WNW) 11:02:16 .
POLYITAN 1 26 Jul 10:57:54 11:00:58 20° 62° (ENE) 11:04:01 437.675
AIST 2D 26 Jul 11:01:48 11:04:57 33° 70° (ENE) 11:08:08 435.315
SO-50 26 Jul 11:09:43 11:10:28 10° 359° (N) 11:11:13 436.795
QB50P2 26 Jul 11:10:23 11:13:59 27° 65° (ENE) 11:17:34 145.880/145.840
AO-73 26 Jul 11:10:47 11:13:46 19° 297° (WNW) 11:16:44 145.935
DELFI C3 26 Jul 11:10:56 11:14:56 77° 287° (WNW) 11:18:57 145.870
M-CUBED/EXP-1 PRIME 26 Jul 11:11:07 11:14:33 34° 258° (WSW) 11:18:16 437.505
EO-88 26 Jul 11:17:49 11:21:29 85° 103° (ESE) 11:25:07 145.990 - 145.960
LO-87 26 Jul 11:19:02 11:20:39 13° 89° (E) 11:22:17 145.935 - 145.965
NANOSAT C BR1 26 Jul 11:20:57 11:24:35 28° 66° (ENE) 11:28:14 145.865
NO-84 26 Jul 11:21:03 11:23:44 29° 136° (SE) 11:26:37 435.350 FM
EO-79 26 Jul 11:21:41 11:25:28 31° 67° (ENE) 11:29:15 145.935-145.965
TIGRISAT 26 Jul 11:35:20 11:38:30 18° 269° (W) 11:41:39 435.000
PCSat 26 Jul 11:47:47 11:51:11 16° 25° (NNE) 11:54:34 145.827
ESTCUBE 1 26 Jul 12:12:56 12:17:03 33° 96° (E) 12:21:10 437.505/2401.250
DUCHIFAT 1 26 Jul 12:27:24 12:31:37 71° 257° (WSW) 12:35:52 145.980
POLYITAN 1 26 Jul 12:32:14 12:36:24 51° 260° (W) 12:40:35 437.675
AIST 2D 26 Jul 12:35:48 12:38:16 18° 268° (W) 12:40:45 435.315
AO-7 26 Jul 12:42:40 12:46:50 15° 33° (NNE) 12:50:59 .
QB50P2 26 Jul 12:45:44 12:49:39 35° 263° (W) 12:53:36 145.880/145.840
SO-50 26 Jul 12:49:53 12:52:48 17° 24° (NNE) 12:55:44 436.795
BUGSAT 1 26 Jul 12:50:16 12:54:28 64° 73° (ENE) 12:58:39 437.445
LO-87 26 Jul 12:50:53 12:54:26 54° 287° (WNW) 12:57:56 145.935 - 145.965
Oscar 19 26 Jul 12:52:29 12:57:04 34° 64° (ENE) 13:01:40 437.125/150
VELOX 1 26 Jul 12:52:44 12:56:06 20° 92° (E) 12:59:26 145.980
NANOSAT C BR1 26 Jul 12:56:23 13:00:13 32° 264° (W) 13:04:04 145.865
EO-79 26 Jul 12:57:29 13:01:13 29° 265° (W) 13:04:58 145.935-145.965
NO-84 26 Jul 12:57:56 13:01:02 49° 338° (NNW) 13:04:25 435.350 FM
